• In Österreich
  • Länderverzeichnis
  • Für 7 Tage
  • Wassertemperatur
  • Satellitenkarten
  • Wetterkarte
  • News
  • Widgets
  • user-avatar
    Anmelden

    Stündliche Wetter Ondjiwa

    Heute, 21 Januar, Sonntag

    Zeit Temperatur Niederschläge Wind Luftdruck Luftfeuchtigkeit
    00:00 +27°C° 0 mm 1 m/S 665 mmHg 47%
    01:00 +27°C° 0 mm 2 m/S 665 mmHg 47%
    02:00 +26°C° 0 mm 2 m/S 665 mmHg 53%
    03:00 +25°C° 0 mm 2 m/S 665 mmHg 59%
    04:00 +24°C° 0 mm 3 m/S 665 mmHg 66%
    05:00 +24°C° 0 mm 3 m/S 665 mmHg 68%
    06:00 +24°C° 0 mm 3 m/S 666 mmHg 70%
    07:00 +24°C° 0 mm 3 m/S 666 mmHg 72%
    08:00 +26°C° 0 mm 3 m/S 666 mmHg 63%
    09:00 +29°C° 0 mm 2 m/S 667 mmHg 53%
    10:00 +31°C° 0 mm 2 m/S 667 mmHg 44%
    11:00 +32°C° 0 mm 2 m/S 667 mmHg 40%
    12:00 +34°C° 0 mm 2 m/S 666 mmHg 37%
    13:00 +35°C° 0 mm 2 m/S 666 mmHg 33%
    14:00 +35°C° 0 mm 2 m/S 666 mmHg 33%
    15:00 +34°C° 0 mm 1 m/S 665 mmHg 34%
    16:00 +34°C° 0 mm 1 m/S 665 mmHg 34%
    17:00 +32°C° 0,2 mm 2 m/S 665 mmHg 38%
    18:00 +31°C° 0,2 mm 2 m/S 665 mmHg 43%
    19:00 +29°C° 0,2 mm 2 m/S 665 mmHg 47%
    20:00 +28°C° 2,3 mm 3 m/S 665 mmHg 56%
    21:00 +27°C° 2,3 mm 4 m/S 666 mmHg 64%
    22:00 +25°C° 2,3 mm 4 m/S 666 mmHg 72%
    23:00 +23°C° 0,4 mm 4 m/S 666 mmHg 72%

    Morgen, 22 Januar, Montag

    Zeit Temperatur Niederschläge Wind Luftdruck Luftfeuchtigkeit
    00:00 +23°C° 0,4 mm 4 m/S 666 mmHg 73%
    01:00 +22°C° 0,4 mm 4 m/S 666 mmHg 73%
    02:00 +22°C° 0,2 mm 3 m/S 666 mmHg 73%
    03:00 +23°C° 0,2 mm 2 m/S 666 mmHg 74%
    04:00 +23°C° 0,2 mm 2 m/S 666 mmHg 75%
    05:00 +23°C° 0,3 mm 2 m/S 666 mmHg 73%
    06:00 +23°C° 0,3 mm 2 m/S 666 mmHg 71%
    07:00 +23°C° 0,3 mm 2 m/S 667 mmHg 69%
    08:00 +24°C° 0,1 mm 2 m/S 667 mmHg 62%
    09:00 +25°C° 0,1 mm 2 m/S 668 mmHg 54%
    10:00 +26°C° 0,1 mm 2 m/S 668 mmHg 47%
    11:00 +28°C° 0 mm 2 m/S 668 mmHg 42%
    12:00 +29°C° 0 mm 2 m/S 667 mmHg 38%
    13:00 +30°C° 0 mm 2 m/S 667 mmHg 33%
    14:00 +31°C° 0 mm 2 m/S 667 mmHg 33%
    15:00 +31°C° 0 mm 2 m/S 666 mmHg 32%
    16:00 +31°C° 0 mm 2 m/S 665 mmHg 31%
    17:00 +30°C° 0 mm 2 m/S 665 mmHg 34%
    18:00 +29°C° 0 mm 2 m/S 665 mmHg 37%
    19:00 +27°C° 0 mm 1 m/S 665 mmHg 40%
    20:00 +27°C° 0 mm 2 m/S 666 mmHg 44%
    21:00 +26°C° 0 mm 2 m/S 666 mmHg 48%
    22:00 +25°C° 0 mm 2 m/S 666 mmHg 52%
    23:00 +25°C° 0 mm 3 m/S 666 mmHg 58%

    übermorgen, 23 Januar, Dienstag

    Zeit Temperatur Niederschläge Wind Luftdruck Luftfeuchtigkeit
    00:00 +24°C° 0 mm 3 m/S 666 mmHg 64%
    01:00 +24°C° 0 mm 3 m/S 665 mmHg 70%
    02:00 +22°C° 0,3 mm 3 m/S 665 mmHg 70%
    03:00 +22°C° 0,3 mm 3 m/S 665 mmHg 69%
    04:00 +22°C° 0,3 mm 3 m/S 665 mmHg 69%
    05:00 +22°C° 0,1 mm 3 m/S 665 mmHg 66%
    06:00 +22°C° 0,1 mm 3 m/S 666 mmHg 62%
    07:00 +22°C° 0,1 mm 3 m/S 666 mmHg 59%
    08:00 +24°C° 0 mm 3 m/S 666 mmHg 55%
    09:00 +25°C° 0 mm 3 m/S 666 mmHg 50%
    10:00 +26°C° 0 mm 3 m/S 666 mmHg 46%
    11:00 +28°C° 0 mm 3 m/S 666 mmHg 40%
    12:00 +30°C° 0 mm 3 m/S 666 mmHg 34%
    13:00 +33°C° 0 mm 3 m/S 666 mmHg 28%
    14:00 +34°C° 0 mm 2 m/S 665 mmHg 27%
    15:00 +34°C° 0 mm 2 m/S 665 mmHg 27%
    16:00 +34°C° 0 mm 2 m/S 664 mmHg 26%
    17:00 +32°C° 0 mm 1 m/S 664 mmHg 29%
    18:00 +31°C° 0 mm 1 m/S 664 mmHg 32%
    19:00 +29°C° 0 mm 1 m/S 664 mmHg 34%
    20:00 +29°C° 0 mm 1 m/S 664 mmHg 36%
    21:00 +28°C° 0 mm 1 m/S 665 mmHg 38%
    22:00 +27°C° 0 mm 1 m/S 665 mmHg 39%
    23:00 +26°C° 0 mm 1 m/S 665 mmHg 43%

    24 Januar, Mittwoch

    Zeit Temperatur Niederschläge Wind Luftdruck Luftfeuchtigkeit
    00:00 +26°C° 0 mm 2 m/S 665 mmHg 47%
    01:00 +25°C° 0 mm 3 m/S 664 mmHg 51%
    02:00 +25°C° 0,1 mm 3 m/S 664 mmHg 54%
    03:00 +24°C° 0,1 mm 3 m/S 664 mmHg 57%
    04:00 +24°C° 0,1 mm 3 m/S 664 mmHg 59%
    05:00 +24°C° 0 mm 3 m/S 665 mmHg 58%
    06:00 +24°C° 0 mm 3 m/S 665 mmHg 57%
    07:00 +24°C° 0 mm 3 m/S 666 mmHg 56%
    08:00 +26°C° 0 mm 3 m/S 666 mmHg 48%
    09:00 +28°C° 0 mm 3 m/S 667 mmHg 40%
    10:00 +30°C° 0 mm 3 m/S 667 mmHg 32%
    11:00 +33°C° 0 mm 3 m/S 667 mmHg 30%
    12:00 +34°C° 0 mm 3 m/S 666 mmHg 27%
    13:00 +36°C° 0 mm 2 m/S 666 mmHg 24%
    14:00 +36°C° 0 mm 2 m/S 665 mmHg 25%
    15:00 +35°C° 0 mm 2 m/S 665 mmHg 25%
    16:00 +35°C° 0 mm 2 m/S 664 mmHg 25%
    17:00 +34°C° 0 mm 2 m/S 664 mmHg 28%
    18:00 +32°C° 0 mm 1 m/S 664 mmHg 31%
    19:00 +31°C° 0 mm 1 m/S 664 mmHg 33%
    20:00 +30°C° 0,1 mm 1 m/S 665 mmHg 37%
    21:00 +29°C° 0,1 mm 2 m/S 665 mmHg 41%
    22:00 +28°C° 0,1 mm 2 m/S 666 mmHg 45%
    23:00 +27°C° 0 mm 3 m/S 665 mmHg 48%

    25 Januar, Donnerstag

    Zeit Temperatur Niederschläge Wind Luftdruck Luftfeuchtigkeit
    00:00 +26°C° 0 mm 4 m/S 665 mmHg 51%
    01:00 +25°C° 0 mm 5 m/S 665 mmHg 54%
    02:00 +25°C° 0 mm 4 m/S 665 mmHg 53%
    03:00 +23°C° 0 mm 4 m/S 665 mmHg 52%
    04:00 +23°C° 0 mm 4 m/S 665 mmHg 50%
    05:00 +24°C° 0 mm 3 m/S 665 mmHg 49%
    06:00 +24°C° 0 mm 3 m/S 666 mmHg 48%
    07:00 +25°C° 0 mm 3 m/S 666 mmHg 47%
    08:00 +26°C° 0,2 mm 3 m/S 666 mmHg 42%
    09:00 +28°C° 0,2 mm 3 m/S 667 mmHg 37%
    10:00 +30°C° 0,2 mm 3 m/S 667 mmHg 32%
    11:00 +32°C° 0,1 mm 2 m/S 667 mmHg 30%
    12:00 +35°C° 0,1 mm 2 m/S 666 mmHg 28%
    13:00 +36°C° 0,1 mm 2 m/S 666 mmHg 25%
    14:00 +36°C° 0 mm 2 m/S 665 mmHg 26%
    15:00 +35°C° 0 mm 2 m/S 665 mmHg 28%
    16:00 +35°C° 0 mm 2 m/S 664 mmHg 29%
    17:00 +34°C° 0 mm 2 m/S 664 mmHg 32%
    18:00 +32°C° 0 mm 2 m/S 664 mmHg 35%
    19:00 +30°C° 0 mm 2 m/S 664 mmHg 38%
    20:00 +29°C° 0,6 mm 2 m/S 665 mmHg 45%
    21:00 +28°C° 0,6 mm 3 m/S 665 mmHg 52%
    22:00 +26°C° 0,6 mm 4 m/S 665 mmHg 59%
    23:00 +26°C° 0,4 mm 3 m/S 665 mmHg 61%

    26 Januar, Freitag

    Zeit Temperatur Niederschläge Wind Luftdruck Luftfeuchtigkeit
    00:00 +25°C° 0,4 mm 3 m/S 665 mmHg 63%
    01:00 +24°C° 0,4 mm 3 m/S 665 mmHg 64%
    02:00 +24°C° 0 mm 3 m/S 665 mmHg 64%
    03:00 +24°C° 0 mm 3 m/S 665 mmHg 63%
    04:00 +22°C° 0 mm 3 m/S 665 mmHg 62%
    05:00 +24°C° 0 mm 3 m/S 665 mmHg 61%
    06:00 +24°C° 0 mm 3 m/S 666 mmHg 60%
    07:00 +24°C° 0 mm 3 m/S 666 mmHg 58%
    08:00 +26°C° 0 mm 3 m/S 667 mmHg 52%
    09:00 +29°C° 0 mm 3 m/S 667 mmHg 45%
    10:00 +31°C° 0 mm 2 m/S 668 mmHg 38%
    11:00 +34°C° 0 mm 3 m/S 667 mmHg 35%
    12:00 +35°C° 0 mm 3 m/S 667 mmHg 31%
    13:00 +36°C° 0 mm 3 m/S 666 mmHg 28%
    14:00 +36°C° 0 mm 3 m/S 666 mmHg 29%
    15:00 +35°C° 0 mm 3 m/S 665 mmHg 30%
    16:00 +35°C° 0 mm 2 m/S 665 mmHg 31%
    17:00 +34°C° 0 mm 2 m/S 665 mmHg 34%
    18:00 +32°C° 0 mm 1 m/S 665 mmHg 36%
    19:00 +31°C° 0 mm 1 m/S 665 mmHg 38%
    20:00 +30°C° 0,1 mm 1 m/S 665 mmHg 41%
    21:00 +29°C° 0,1 mm 1 m/S 665 mmHg 43%
    22:00 +29°C° 0,1 mm 2 m/S 665 mmHg 45%
    23:00 +27°C° 0,2 mm 2 m/S 665 mmHg 52%
    Mehr zeigen